datetime,flow
1974-10-01,645.0
1974-10-02,625.0
1974-10-03,590.0
1974-10-04,555.0
1974-10-05,550.0
1974-10-06,543.0
1974-10-07,525.0
1974-10-08,520.0
1974-10-09,510.0
1974-10-10,495.0
1974-10-11,500.0
1974-10-12,535.0
1974-10-13,550.0
1974-10-14,503.0
1974-10-15,505.0
1974-10-16,505.0
1974-10-17,500.0
1974-10-18,465.0
1974-10-19,150.0
1974-10-20,0.0
1974-10-21,0.0
1974-10-22,0.0
1974-10-23,0.0
1974-10-24,0.0
1974-10-25,0.0
1974-10-26,0.0
1974-10-27,0.0
1974-10-28,0.0
1974-10-29,0.0
1974-10-30,0.0
1974-10-31,0.0
1974-11-01,0.0
1974-11-02,0.0
1974-11-03,0.0
1974-11-04,0.0
1974-11-05,0.0
1974-11-06,0.0
1974-11-07,0.0
1974-11-08,0.0
1974-11-09,0.0
1974-11-10,0.0
1974-11-11,0.0
1974-11-12,0.0
1974-11-13,0.0
1974-11-14,0.0
1974-11-15,0.0
1974-11-16,0.0
1974-11-17,0.0
1974-11-18,0.0
1974-11-19,0.0
1974-11-20,0.0
1974-11-21,0.0
1974-11-22,0.0
1974-11-23,0.0
1974-11-24,0.0
1974-11-25,0.0
1974-11-26,0.0
1974-11-27,0.0
1974-11-28,0.0
1974-11-29,0.0
1974-11-30,0.0
1974-12-01,0.0
1974-12-02,0.0
1974-12-03,0.0
1974-12-04,0.0
1974-12-05,0.0
1974-12-06,0.0
1974-12-07,0.0
1974-12-08,0.0
1974-12-09,0.0
1974-12-10,0.0
1974-12-11,0.0
1974-12-12,0.0
1974-12-13,0.0
1974-12-14,0.0
1974-12-15,0.0
1974-12-16,0.0
1974-12-17,0.0
1974-12-18,0.0
1974-12-19,0.0
1974-12-20,0.0
1974-12-21,0.0
1974-12-22,0.0
1974-12-23,0.0
1974-12-24,0.0
1974-12-25,0.0
1974-12-26,0.0
1974-12-27,0.0
1974-12-28,0.0
1974-12-29,0.0
1974-12-30,0.0
1974-12-31,0.0
1975-01-01,0.0
1975-01-02,0.0
1975-01-03,0.0
1975-01-04,0.0
1975-01-05,0.0
1975-01-06,0.0
1975-01-07,0.0
1975-01-08,0.0
1975-01-09,0.0
1975-01-10,0.0
1975-01-11,0.0
1975-01-12,0.0
1975-01-13,0.0
1975-01-14,0.0
1975-01-15,0.0
1975-01-16,0.0
1975-01-17,0.0
1975-01-18,0.0
1975-01-19,0.0
1975-01-20,0.0
1975-01-21,0.0
1975-01-22,0.0
1975-01-23,0.0
1975-01-24,0.0
1975-01-25,0.0
1975-01-26,0.0
1975-01-27,0.0
1975-01-28,0.0
1975-01-29,0.0
1975-01-30,0.0
1975-01-31,0.0
1975-02-01,0.0
1975-02-02,0.0
1975-02-03,0.0
1975-02-04,0.0
1975-02-05,0.0
1975-02-06,0.0
1975-02-07,0.0
1975-02-08,0.0
1975-02-09,0.0
1975-02-10,0.0
1975-02-11,0.0
1975-02-12,0.0
1975-02-13,0.0
1975-02-14,0.0
1975-02-15,0.0
1975-02-16,0.0
1975-02-17,0.0
1975-02-18,0.0
1975-02-19,0.0
1975-02-20,0.0
1975-02-21,0.0
1975-02-22,0.0
1975-02-23,0.0
1975-02-24,0.0
1975-02-25,0.0
1975-02-26,0.0
1975-02-27,0.0
1975-02-28,0.0
1975-03-01,0.0
1975-03-02,0.0
1975-03-03,0.0
1975-03-04,0.0
1975-03-05,0.0
1975-03-06,0.0
1975-03-07,0.0
1975-03-08,0.0
1975-03-09,0.0
1975-03-10,0.0
1975-03-11,0.0
1975-03-12,0.0
1975-03-13,0.0
1975-03-14,0.0
1975-03-15,0.0
1975-03-16,0.0
1975-03-17,0.0
1975-03-18,0.0
1975-03-19,0.0
1975-03-20,0.0
1975-03-21,0.0
1975-03-22,0.0
1975-03-23,0.0
1975-03-24,0.0
1975-03-25,0.0
1975-03-26,0.0
1975-03-27,0.0
1975-03-28,0.0
1975-03-29,0.0
1975-03-30,0.0
1975-03-31,0.0
1975-04-01,0.0
1975-04-02,0.0
1975-04-03,0.0
1975-04-04,0.0
1975-04-05,0.0
1975-04-06,0.0
1975-04-07,0.0
1975-04-08,0.0
1975-04-09,0.0
1975-04-10,0.0
1975-04-11,0.0
1975-04-12,0.0
1975-04-13,0.0
1975-04-14,0.0
1975-04-15,0.0
1975-04-16,0.0
1975-04-17,0.0
1975-04-18,48.0
1975-04-19,67.0
1975-04-20,81.0
1975-04-21,80.0
1975-04-22,162.0
1975-04-23,207.0
1975-04-24,225.0
1975-04-25,225.0
1975-04-26,230.0
1975-04-27,225.0
1975-04-28,232.0
1975-04-29,268.0
1975-04-30,326.0
1975-05-01,340.0
1975-05-02,357.0
1975-05-03,422.0
1975-05-04,430.0
1975-05-05,443.0
1975-05-06,449.0
1975-05-07,484.0
1975-05-08,525.0
1975-05-09,597.0
1975-05-10,625.0
1975-05-11,655.0
1975-05-12,681.0
1975-05-13,733.0
1975-05-14,779.0
1975-05-15,813.0
1975-05-16,845.0
1975-05-17,865.0
1975-05-18,882.0
1975-05-19,888.0
1975-05-20,908.0
1975-05-21,903.0
1975-05-22,933.0
1975-05-23,946.0
1975-05-24,970.0
1975-05-25,958.0
1975-05-26,930.0
1975-05-27,926.0
1975-05-28,986.0
1975-05-29,1013.0
1975-05-30,1025.0
1975-05-31,1021.0
1975-06-01,1028.0
1975-06-02,1023.0
1975-06-03,1022.0
1975-06-04,1034.0
1975-06-05,1008.0
1975-06-06,993.0
1975-06-07,997.0
1975-06-08,992.0
1975-06-09,1035.0
1975-06-10,1055.0
1975-06-11,1065.0
1975-06-12,1065.0
1975-06-13,1085.0
1975-06-14,1075.0
1975-06-15,1070.0
1975-06-16,1073.0
1975-06-17,1072.0
1975-06-18,1059.0
1975-06-19,1031.0
1975-06-20,990.0
1975-06-21,976.0
1975-06-22,929.0
1975-06-23,926.0
1975-06-24,901.0
1975-06-25,876.0
1975-06-26,846.0
1975-06-27,816.0
1975-06-28,810.0
1975-06-29,793.0
1975-06-30,831.0
1975-07-01,835.0
1975-07-02,875.0
1975-07-03,885.0
1975-07-04,862.0
1975-07-05,886.0
1975-07-06,921.0
1975-07-07,920.0
1975-07-08,943.0
1975-07-09,971.0
1975-07-10,979.0
1975-07-11,996.0
1975-07-12,1004.0
1975-07-13,929.0
1975-07-14,915.0
1975-07-15,875.0
1975-07-16,837.0
1975-07-17,804.0
1975-07-18,790.0
1975-07-19,786.0
1975-07-20,800.0
1975-07-21,870.0
1975-07-22,907.0
1975-07-23,927.0
1975-07-24,969.0
1975-07-25,1011.0
1975-07-26,1042.0
1975-07-27,1052.0
1975-07-28,1069.0
1975-07-29,1081.0
1975-07-30,1075.0
1975-07-31,1070.0
1975-08-01,1052.0
1975-08-02,1022.0
1975-08-03,997.0
1975-08-04,1027.0
1975-08-05,1050.0
1975-08-06,1039.0
1975-08-07,1051.0
1975-08-08,1040.0
1975-08-09,1015.0
1975-08-10,971.0
1975-08-11,959.0
1975-08-12,958.0
1975-08-13,990.0
1975-08-14,1030.0
1975-08-15,1030.0
1975-08-16,980.0
1975-08-17,908.0
1975-08-18,847.0
1975-08-19,834.0
1975-08-20,830.0
1975-08-21,803.0
1975-08-22,793.0
1975-08-23,774.0
1975-08-24,739.0
1975-08-25,769.0
1975-08-26,755.0
1975-08-27,749.0
1975-08-28,754.0
1975-08-29,772.0
1975-08-30,780.0
1975-08-31,766.0
1975-09-01,755.0
1975-09-02,788.0
1975-09-03,804.0
1975-09-04,794.0
1975-09-05,763.0
1975-09-06,784.0
1975-09-07,793.0
1975-09-08,806.0
1975-09-09,825.0
1975-09-10,816.0
1975-09-11,808.0
1975-09-12,799.0
1975-09-13,782.0
1975-09-14,716.0
1975-09-15,678.0
1975-09-16,673.0
1975-09-17,668.0
1975-09-18,646.0
1975-09-19,611.0
1975-09-20,624.0
1975-09-21,620.0
1975-09-22,627.0
1975-09-23,654.0
1975-09-24,651.0
1975-09-25,656.0
1975-09-26,654.0
1975-09-27,625.0
1975-09-28,632.0
1975-09-29,629.0
1975-09-30,627.0
1975-10-01,629.0
1975-10-02,649.0
1975-10-03,644.0
1975-10-04,606.0
1975-10-05,568.0
1975-10-06,522.0
1975-10-07,462.0
1975-10-08,425.0
1975-10-09,404.0
1975-10-10,398.0
1975-10-11,354.0
1975-10-12,326.0
1975-10-13,304.0
1975-10-14,300.0
1975-10-15,247.0
1975-10-16,0.0
1975-10-17,0.0
1975-10-18,0.0
1975-10-19,0.0
1975-10-20,0.0
1975-10-21,0.0
1975-10-22,0.0
1975-10-23,0.0
1975-10-24,0.0
1975-10-25,0.0
1975-10-26,0.0
1975-10-27,0.0
1975-10-28,0.0
1975-10-29,0.0
1975-10-30,0.0
1975-10-31,0.0
1975-11-01,0.0
1975-11-02,0.0
1975-11-03,0.0
1975-11-04,0.0
1975-11-05,0.0
1975-11-06,0.0
1975-11-07,0.0
1975-11-08,0.0
1975-11-09,0.0
1975-11-10,0.0
1975-11-11,0.0
1975-11-12,0.0
1975-11-13,0.0
1975-11-14,0.0
1975-11-15,0.0
1975-11-16,0.0
1975-11-17,0.0
1975-11-18,0.0
1975-11-19,0.0
1975-11-20,0.0
1975-11-21,0.0
1975-11-22,0.0
1975-11-23,0.0
1975-11-24,0.0
1975-11-25,0.0
1975-11-26,0.0
1975-11-27,0.0
1975-11-28,0.0
1975-11-29,0.0
1975-11-30,0.0
1975-12-01,0.0
1975-12-02,0.0
1975-12-03,0.0
1975-12-04,0.0
1975-12-05,0.0
1975-12-06,0.0
1975-12-07,0.0
1975-12-08,0.0
1975-12-09,0.0
1975-12-10,0.0
1975-12-11,0.0
1975-12-12,0.0
1975-12-13,0.0
1975-12-14,0.0
1975-12-15,0.0
1975-12-16,0.0
1975-12-17,0.0
1975-12-18,0.0
1975-12-19,0.0
1975-12-20,0.0
1975-12-21,0.0
1975-12-22,0.0
1975-12-23,0.0
1975-12-24,0.0
1975-12-25,0.0
1975-12-26,0.0
1975-12-27,0.0
1975-12-28,0.0
1975-12-29,0.0
1975-12-30,0.0
1975-12-31,0.0
1976-01-01,0.0
1976-01-02,0.0
1976-01-03,0.0
1976-01-04,0.0
1976-01-05,0.0
1976-01-06,0.0
1976-01-07,0.0
1976-01-08,0.0
1976-01-09,0.0
1976-01-10,0.0
1976-01-11,0.0
1976-01-12,0.0
1976-01-13,0.0
1976-01-14,0.0
1976-01-15,0.0
1976-01-16,0.0
1976-01-17,0.0
1976-01-18,0.0
1976-01-19,0.0
1976-01-20,0.0
1976-01-21,0.0
1976-01-22,0.0
1976-01-23,0.0
1976-01-24,0.0
1976-01-25,0.0
1976-01-26,0.0
1976-01-27,0.0
1976-01-28,0.0
1976-01-29,0.0
1976-01-30,0.0
1976-01-31,0.0
1976-02-01,0.0
1976-02-02,0.0
1976-02-03,0.0
1976-02-04,0.0
1976-02-05,0.0
1976-02-06,0.0
1976-02-07,0.0
1976-02-08,0.0
1976-02-09,0.0
1976-02-10,0.0
1976-02-11,0.0
1976-02-12,0.0
1976-02-13,0.0
1976-02-14,0.0
1976-02-15,0.0
1976-02-16,0.0
1976-02-17,0.0
1976-02-18,0.0
1976-02-19,0.0
1976-02-20,0.0
1976-02-21,0.0
1976-02-22,0.0
1976-02-23,0.0
1976-02-24,0.0
1976-02-25,0.0
1976-02-26,0.0
1976-02-27,0.0
1976-02-28,0.0
1976-02-29,0.0
1976-03-01,0.0
1976-03-02,0.0
1976-03-03,0.0
1976-03-04,0.0
1976-03-05,0.0
1976-03-06,0.0
1976-03-07,0.0
1976-03-08,0.0
1976-03-09,0.0
1976-03-10,0.0
1976-03-11,0.0
1976-03-12,0.0
1976-03-13,0.0
1976-03-14,0.0
1976-03-15,0.0
1976-03-16,0.0
1976-03-17,0.0
1976-03-18,0.0
1976-03-19,0.0
1976-03-20,0.0
1976-03-21,0.0
1976-03-22,0.0
1976-03-23,0.0
1976-03-24,0.0
1976-03-25,0.0
1976-03-26,0.0
1976-03-27,0.0
1976-03-28,0.0
1976-03-29,0.0
1976-03-30,0.0
1976-03-31,0.0
1976-04-01,0.0
1976-04-02,0.0
1976-04-03,0.0
1976-04-04,0.0
1976-04-05,0.0
1976-04-06,0.0
1976-04-07,0.0
1976-04-08,0.0
1976-04-09,0.0
1976-04-10,0.0
1976-04-11,0.0
1976-04-12,57.0
1976-04-13,203.0
1976-04-14,223.0
1976-04-15,177.0
1976-04-16,236.0
1976-04-17,265.0
1976-04-18,293.0
1976-04-19,322.0
1976-04-20,390.0
1976-04-21,459.0
1976-04-22,502.0
1976-04-23,541.0
1976-04-24,552.0
1976-04-25,558.0
1976-04-26,610.0
1976-04-27,664.0
1976-04-28,674.0
1976-04-29,685.0
1976-04-30,702.0
1976-05-01,736.0
1976-05-02,754.0
1976-05-03,805.0
1976-05-04,870.0
1976-05-05,903.0
1976-05-06,925.0
1976-05-07,879.0
1976-05-08,811.0
1976-05-09,889.0
1976-05-10,937.0
1976-05-11,950.0
1976-05-12,967.0
1976-05-13,1020.0
1976-05-14,1040.0
1976-05-15,1030.0
1976-05-16,1020.0
1976-05-17,1010.0
1976-05-18,1040.0
1976-05-19,1070.0
1976-05-20,1030.0
1976-05-21,994.0
1976-05-22,986.0
1976-05-23,985.0
1976-05-24,1010.0
1976-05-25,1010.0
1976-05-26,1020.0
1976-05-27,1030.0
1976-05-28,1010.0
1976-05-29,1010.0
1976-05-30,961.0
1976-05-31,917.0
1976-06-01,933.0
1976-06-02,942.0
1976-06-03,933.0
1976-06-04,885.0
1976-06-05,861.0
1976-06-06,850.0
1976-06-07,876.0
1976-06-08,945.0
1976-06-09,970.0
1976-06-10,920.0
1976-06-11,882.0
1976-06-12,838.0
1976-06-13,828.0
1976-06-14,875.0
1976-06-15,915.0
1976-06-16,950.0
1976-06-17,965.0
1976-06-18,1010.0
1976-06-19,1020.0
1976-06-20,995.0
1976-06-21,961.0
1976-06-22,960.0
1976-06-23,970.0
1976-06-24,970.0
1976-06-25,935.0
1976-06-26,945.0
1976-06-27,975.0
1976-06-28,985.0
1976-06-29,1020.0
1976-06-30,1030.0
1976-07-01,1000.0
1976-07-02,982.0
1976-07-03,985.0
1976-07-04,969.0
1976-07-05,931.0
1976-07-06,963.0
1976-07-07,994.0
1976-07-08,1015.0
1976-07-09,992.0
1976-07-10,988.0
1976-07-11,986.0
1976-07-12,938.0
1976-07-13,937.0
1976-07-14,960.0
1976-07-15,989.0
1976-07-16,1000.0
1976-07-17,982.0
1976-07-18,969.0
1976-07-19,977.0
1976-07-20,973.0
1976-07-21,975.0
1976-07-22,992.0
1976-07-23,987.0
1976-07-24,985.0
1976-07-25,997.0
1976-07-26,998.0
1976-07-27,1020.0
1976-07-28,1050.0
1976-07-29,1050.0
1976-07-30,1040.0
1976-07-31,1030.0
1976-08-01,968.0
1976-08-02,863.0
1976-08-03,826.0
1976-08-04,747.0
1976-08-05,678.0
1976-08-06,636.0
1976-08-07,581.0
1976-08-08,528.0
1976-08-09,506.0
1976-08-10,528.0
1976-08-11,574.0
1976-08-12,646.0
1976-08-13,664.0
1976-08-14,598.0
1976-08-15,505.0
1976-08-16,467.0
1976-08-17,465.0
1976-08-18,409.0
1976-08-19,368.0
1976-08-20,346.0
1976-08-21,358.0
1976-08-22,269.0
1976-08-23,229.0
1976-08-24,270.0
1976-08-25,245.0
1976-08-26,235.0
1976-08-27,249.0
1976-08-28,262.0
1976-08-29,311.0
1976-08-30,272.0
1976-08-31,464.0
1976-09-01,558.0
1976-09-02,643.0
1976-09-03,683.0
1976-09-04,693.0
1976-09-05,700.0
1976-09-06,709.0
1976-09-07,740.0
1976-09-08,748.0
1976-09-09,731.0
1976-09-10,737.0
1976-09-11,723.0
1976-09-12,710.0
1976-09-13,694.0
1976-09-14,703.0
1976-09-15,681.0
1976-09-16,664.0
1976-09-17,643.0
1976-09-18,618.0
1976-09-19,598.0
1976-09-20,580.0
1976-09-21,561.0
1976-09-22,564.0
1976-09-23,580.0
1976-09-24,581.0
1976-09-25,615.0
1976-09-26,623.0
1976-09-27,607.0
1976-09-28,573.0
1976-09-29,571.0
1976-09-30,553.0
1976-10-01,559.0
1976-10-02,576.0
1976-10-03,543.0
1976-10-04,508.0
1976-10-05,504.0
1976-10-06,496.0
1976-10-07,491.0
1976-10-08,489.0
1976-10-09,523.0
1976-10-10,528.0
1976-10-11,544.0
1976-10-12,558.0
1976-10-13,569.0
1976-10-14,579.0
1976-10-15,193.0
1976-10-16,0.0
1976-10-17,0.0
1976-10-18,0.0
1976-10-19,0.0
1976-10-20,0.0
1976-10-21,0.0
1976-10-22,0.0
1976-10-23,0.0
1976-10-24,0.0
1976-10-25,0.0
1976-10-26,0.0
1976-10-27,0.0
1976-10-28,0.0
1976-10-29,0.0
1976-10-30,0.0
1976-10-31,0.0
1976-11-01,0.0
1976-11-02,0.0
1976-11-03,0.0
1976-11-04,0.0
1976-11-05,0.0
1976-11-06,0.0
1976-11-07,0.0
1976-11-08,0.0
1976-11-09,0.0
1976-11-10,0.0
1976-11-11,0.0
1976-11-12,0.0
1976-11-13,0.0
1976-11-14,0.0
1976-11-15,0.0
1976-11-16,0.0
1976-11-17,0.0
1976-11-18,0.0
1976-11-19,0.0
1976-11-20,0.0
1976-11-21,0.0
1976-11-22,0.0
1976-11-23,0.0
1976-11-24,0.0
1976-11-25,0.0
1976-11-26,0.0
1976-11-27,0.0
1976-11-28,0.0
1976-11-29,0.0
1976-11-30,0.0
1976-12-01,0.0
1976-12-02,0.0
1976-12-03,0.0
1976-12-04,0.0
1976-12-05,0.0
1976-12-06,0.0
1976-12-07,0.0
1976-12-08,0.0
1976-12-09,0.0
1976-12-10,0.0
1976-12-11,0.0
1976-12-12,0.0
1976-12-13,0.0
1976-12-14,0.0
1976-12-15,0.0
1976-12-16,0.0
1976-12-17,0.0
1976-12-18,0.0
1976-12-19,0.0
1976-12-20,0.0
1976-12-21,0.0
1976-12-22,0.0
1976-12-23,0.0
1976-12-24,0.0
1976-12-25,0.0
1976-12-26,0.0
1976-12-27,0.0
1976-12-28,0.0
1976-12-29,0.0
1976-12-30,0.0
1976-12-31,0.0
1977-01-01,0.0
1977-01-02,0.0
1977-01-03,0.0
1977-01-04,0.0
1977-01-05,0.0
1977-01-06,0.0
1977-01-07,0.0
1977-01-08,0.0
1977-01-09,0.0
1977-01-10,0.0
1977-01-11,0.0
1977-01-12,0.0
1977-01-13,0.0
1977-01-14,0.0
1977-01-15,0.0
1977-01-16,0.0
1977-01-17,0.0
1977-01-18,0.0
1977-01-19,0.0
1977-01-20,0.0
1977-01-21,0.0
1977-01-22,0.0
1977-01-23,0.0
1977-01-24,0.0
1977-01-25,0.0
1977-01-26,0.0
1977-01-27,0.0
1977-01-28,0.0
1977-01-29,0.0
1977-01-30,0.0
1977-01-31,0.0
1977-02-01,0.0
1977-02-02,0.0
1977-02-03,0.0
1977-02-04,0.0
1977-02-05,0.0
1977-02-06,0.0
1977-02-07,0.0
1977-02-08,0.0
1977-02-09,0.0
1977-02-10,0.0
1977-02-11,0.0
1977-02-12,0.0
1977-02-13,0.0
1977-02-14,0.0
1977-02-15,0.0
1977-02-16,0.0
1977-02-17,0.0
1977-02-18,0.0
1977-02-19,0.0
1977-02-20,0.0
1977-02-21,0.0
1977-02-22,0.0
1977-02-23,0.0
1977-02-24,0.0
1977-02-25,0.0
1977-02-26,0.0
1977-02-27,0.0
1977-02-28,0.0
1977-03-01,0.0
1977-03-02,0.0
1977-03-03,0.0
1977-03-04,0.0
1977-03-05,0.0
1977-03-06,0.0
1977-03-07,0.0
1977-03-08,0.0
1977-03-09,0.0
1977-03-10,0.0
1977-03-11,0.0
1977-03-12,0.0
1977-03-13,0.0
1977-03-14,0.0
1977-03-15,0.0
1977-03-16,0.0
1977-03-17,0.0
1977-03-18,0.0
1977-03-19,0.0
1977-03-20,0.0
1977-03-21,0.0
1977-03-22,0.0
1977-03-23,0.0
1977-03-24,0.0
1977-03-25,0.0
1977-03-26,0.0
1977-03-27,0.0
1977-03-28,0.0
1977-03-29,0.0
1977-03-30,0.0
1977-03-31,0.0
1977-04-01,0.0
1977-04-02,0.0
1977-04-03,0.0
1977-04-04,62.0
1977-04-05,218.0
1977-04-06,297.0
1977-04-07,354.0
1977-04-08,382.0
1977-04-09,421.0
1977-04-10,499.0
1977-04-11,470.0
1977-04-12,560.0
1977-04-13,703.0
1977-04-14,755.0
1977-04-15,797.0
1977-04-16,860.0
1977-04-17,884.0
1977-04-18,838.0
1977-04-19,823.0
1977-04-20,798.0
1977-04-21,774.0
1977-04-22,785.0
1977-04-23,816.0
1977-04-24,821.0
1977-04-25,862.0
1977-04-26,909.0
1977-04-27,929.0
1977-04-28,923.0
1977-04-29,886.0
1977-04-30,869.0
1977-05-01,847.0
1977-05-02,813.0
1977-05-03,765.0
1977-05-04,711.0
1977-05-05,691.0
1977-05-06,688.0
1977-05-07,751.0
1977-05-08,630.0
1977-05-09,611.0
1977-05-10,583.0
1977-05-11,494.0
1977-05-12,488.0
1977-05-13,504.0
1977-05-14,500.0
1977-05-15,491.0
1977-05-16,518.0
1977-05-17,463.0
1977-05-18,185.0
1977-05-19,0.0
1977-05-20,38.0
1977-05-21,396.0
1977-05-22,422.0
1977-05-23,471.0
1977-05-24,455.0
1977-05-25,458.0
1977-05-26,483.0
1977-05-27,467.0
1977-05-28,464.0
1977-05-29,496.0
1977-05-30,549.0
1977-05-31,661.0
1977-06-01,786.0
1977-06-02,879.0
1977-06-03,931.0
1977-06-04,946.0
1977-06-05,969.0
1977-06-06,989.0
1977-06-07,962.0
1977-06-08,851.0
1977-06-09,974.0
1977-06-10,898.0
1977-06-11,769.0
1977-06-12,681.0
1977-06-13,616.0
1977-06-14,632.0
1977-06-15,646.0
1977-06-16,707.0
1977-06-17,775.0
1977-06-18,836.0
1977-06-19,831.0
1977-06-20,830.0
1977-06-21,899.0
1977-06-22,924.0
1977-06-23,899.0
1977-06-24,913.0
1977-06-25,934.0
1977-06-26,981.0
1977-06-27,970.0
1977-06-28,980.0
1977-06-29,1000.0
1977-06-30,1020.0
1977-07-01,1000.0
1977-07-02,972.0
1977-07-03,935.0
1977-07-04,899.0
1977-07-05,892.0
1977-07-06,894.0
1977-07-07,923.0
1977-07-08,918.0
1977-07-09,921.0
1977-07-10,957.0
1977-07-11,982.0
1977-07-12,1000.0
1977-07-13,1005.0
1977-07-14,1010.0
1977-07-15,1010.0
1977-07-16,1005.0
1977-07-17,1000.0
1977-07-18,1010.0
1977-07-19,1000.0
1977-07-20,1010.0
1977-07-21,1000.0
1977-07-22,990.0
1977-07-23,983.0
1977-07-24,963.0
1977-07-25,952.0
1977-07-26,963.0
1977-07-27,958.0
1977-07-28,954.0
1977-07-29,954.0
1977-07-30,938.0
1977-07-31,929.0
1977-08-01,947.0
1977-08-02,943.0
1977-08-03,924.0
1977-08-04,919.0
1977-08-05,911.0
1977-08-06,916.0
1977-08-07,915.0
1977-08-08,867.0
1977-08-09,831.0
1977-08-10,820.0
1977-08-11,842.0
1977-08-12,892.0
1977-08-13,873.0
1977-08-14,841.0
1977-08-15,853.0
1977-08-16,853.0
1977-08-17,853.0
1977-08-18,846.0
1977-08-19,840.0
1977-08-20,861.0
1977-08-21,853.0
1977-08-22,846.0
1977-08-23,869.0
1977-08-24,889.0
1977-08-25,825.0
1977-08-26,720.0
1977-08-27,685.0
1977-08-28,673.0
1977-08-29,660.0
1977-08-30,647.0
1977-08-31,671.0
1977-09-01,705.0
1977-09-02,738.0
1977-09-03,772.0
1977-09-04,820.0
1977-09-05,838.0
1977-09-06,807.0
1977-09-07,813.0
1977-09-08,820.0
1977-09-09,801.0
1977-09-10,778.0
1977-09-11,756.0
1977-09-12,772.0
1977-09-13,760.0
1977-09-14,750.0
1977-09-15,783.0
1977-09-16,738.0
1977-09-17,641.0
1977-09-18,557.0
1977-09-19,479.0
1977-09-20,390.0
1977-09-21,349.0
1977-09-22,323.0
1977-09-23,282.0
1977-09-24,284.0
1977-09-25,283.0
1977-09-26,270.0
1977-09-27,257.0
1977-09-28,247.0
1977-09-29,215.0
1977-09-30,202.0
1977-10-01,193.0
1977-10-02,190.0
1977-10-03,190.0
1977-10-04,190.0
1977-10-05,194.0
1977-10-06,204.0
1977-10-07,204.0
1977-10-08,193.0
1977-10-09,186.0
1977-10-10,62.0
1977-10-11,0.0
1977-10-12,0.0
1977-10-13,0.0
1977-10-14,0.0
1977-10-15,0.0
1977-10-16,0.0
1977-10-17,0.0
1977-10-18,0.0
1977-10-19,0.0
1977-10-20,0.0
1977-10-21,0.0
1977-10-22,0.0
1977-10-23,0.0
1977-10-24,0.0
1977-10-25,0.0
1977-10-26,0.0
1977-10-27,0.0
1977-10-28,0.0
1977-10-29,0.0
1977-10-30,0.0
1977-10-31,0.0
1977-11-01,0.0
1977-11-02,0.0
1977-11-03,0.0
1977-11-04,0.0
1977-11-05,0.0
1977-11-06,0.0
1977-11-07,0.0
1977-11-08,0.0
1977-11-09,0.0
1977-11-10,0.0
1977-11-11,0.0
1977-11-12,0.0
1977-11-13,0.0
1977-11-14,0.0
1977-11-15,0.0
1977-11-16,0.0
1977-11-17,0.0
1977-11-18,0.0
1977-11-19,0.0
1977-11-20,0.0
1977-11-21,0.0
1977-11-22,0.0
1977-11-23,0.0
1977-11-24,0.0
1977-11-25,0.0
1977-11-26,0.0
1977-11-27,0.0
1977-11-28,0.0
1977-11-29,0.0
1977-11-30,0.0
1977-12-01,0.0
1977-12-02,0.0
1977-12-03,0.0
1977-12-04,0.0
1977-12-05,0.0
1977-12-06,0.0
1977-12-07,0.0
1977-12-08,0.0
1977-12-09,0.0
1977-12-10,0.0
1977-12-11,0.0
1977-12-12,0.0
1977-12-13,0.0
1977-12-14,0.0
1977-12-15,0.0
1977-12-16,0.0
1977-12-17,0.0
1977-12-18,0.0
1977-12-19,0.0
1977-12-20,0.0
1977-12-21,0.0
1977-12-22,0.0
1977-12-23,0.0
1977-12-24,0.0
1977-12-25,0.0
1977-12-26,0.0
1977-12-27,0.0
1977-12-28,0.0
1977-12-29,0.0
1977-12-30,0.0
1977-12-31,0.0
1978-01-01,0.0
1978-01-02,0.0
1978-01-03,0.0
1978-01-04,0.0
1978-01-05,0.0
1978-01-06,0.0
1978-01-07,0.0
1978-01-08,0.0
1978-01-09,0.0
1978-01-10,0.0
1978-01-11,0.0
1978-01-12,0.0
1978-01-13,0.0
1978-01-14,0.0
1978-01-15,0.0
1978-01-16,0.0
1978-01-17,0.0
1978-01-18,0.0
1978-01-19,0.0
1978-01-20,0.0
1978-01-21,0.0
1978-01-22,0.0
1978-01-23,0.0
1978-01-24,0.0
1978-01-25,0.0
1978-01-26,0.0
1978-01-27,0.0
1978-01-28,0.0
1978-01-29,0.0
1978-01-30,0.0
1978-01-31,0.0
1978-02-01,0.0
1978-02-02,0.0
1978-02-03,0.0
1978-02-04,0.0
1978-02-05,0.0
1978-02-06,0.0
1978-02-07,0.0
1978-02-08,0.0
1978-02-09,0.0
1978-02-10,0.0
1978-02-11,0.0
1978-02-12,0.0
1978-02-13,0.0
1978-02-14,0.0
1978-02-15,0.0
1978-02-16,0.0
1978-02-17,0.0
1978-02-18,0.0
1978-02-19,0.0
1978-02-20,0.0
1978-02-21,0.0
1978-02-22,0.0
1978-02-23,0.0
1978-02-24,0.0
1978-02-25,0.0
1978-02-26,0.0
1978-02-27,0.0
1978-02-28,0.0
1978-03-01,0.0
1978-03-02,0.0
1978-03-03,0.0
1978-03-04,0.0
1978-03-05,0.0
1978-03-06,0.0
1978-03-07,0.0
1978-03-08,0.0
1978-03-09,0.0
1978-03-10,0.0
1978-03-11,0.0
1978-03-12,0.0
1978-03-13,0.0
1978-03-14,0.0
1978-03-15,0.0
1978-03-16,0.0
1978-03-17,0.0
1978-03-18,0.0
1978-03-19,0.0
1978-03-20,0.0
1978-03-21,0.0
1978-03-22,0.0
1978-03-23,0.0
1978-03-24,0.0
1978-03-25,0.0
1978-03-26,0.0
1978-03-27,0.0
1978-03-28,0.0
1978-03-29,0.0
1978-03-30,0.0
1978-03-31,0.0
1978-04-01,0.0
1978-04-02,0.0
1978-04-03,29.0
1978-04-04,49.0
1978-04-05,48.0
1978-04-06,37.0
1978-04-07,32.0
1978-04-08,34.0
1978-04-09,72.0
1978-04-10,86.0
1978-04-11,85.0
1978-04-12,98.0
1978-04-13,158.0
1978-04-14,172.0
1978-04-15,157.0
1978-04-16,142.0
1978-04-17,135.0
1978-04-18,133.0
1978-04-19,144.0
1978-04-20,159.0
1978-04-21,161.0
1978-04-22,160.0
1978-04-23,153.0
1978-04-24,150.0
1978-04-25,125.0
1978-04-26,100.0
1978-04-27,100.0
1978-04-28,100.0
1978-04-29,99.0
1978-04-30,100.0
1978-05-01,111.0
1978-05-02,134.0
1978-05-03,157.0
1978-05-04,178.0
1978-05-05,180.0
1978-05-06,199.0
1978-05-07,229.0
1978-05-08,270.0
1978-05-09,337.0
1978-05-10,389.0
1978-05-11,404.0
1978-05-12,434.0
1978-05-13,437.0
1978-05-14,452.0
1978-05-15,475.0
1978-05-16,451.0
1978-05-17,454.0
1978-05-18,470.0
1978-05-19,564.0
1978-05-20,607.0
1978-05-21,634.0
1978-05-22,675.0
1978-05-23,732.0
1978-05-24,746.0
1978-05-25,746.0
1978-05-26,734.0
1978-05-27,718.0
1978-05-28,743.0
1978-05-29,799.0
1978-05-30,828.0
1978-05-31,900.0
1978-06-01,949.0
1978-06-02,952.0
1978-06-03,1000.0
1978-06-04,1010.0
1978-06-05,992.0
1978-06-06,1010.0
1978-06-07,1020.0
1978-06-08,1010.0
1978-06-09,1010.0
1978-06-10,985.0
1978-06-11,960.0
1978-06-12,973.0
1978-06-13,964.0
1978-06-14,972.0
1978-06-15,991.0
1978-06-16,1000.0
1978-06-17,998.0
1978-06-18,986.0
1978-06-19,866.0
1978-06-20,851.0
1978-06-21,943.0
1978-06-22,965.0
1978-06-23,983.0
1978-06-24,970.0
1978-06-25,895.0
1978-06-26,834.0
1978-06-27,773.0
1978-06-28,778.0
1978-06-29,769.0
1978-06-30,729.0
1978-07-01,708.0
1978-07-02,709.0
1978-07-03,720.0
1978-07-04,745.0
1978-07-05,798.0
1978-07-06,874.0
1978-07-07,929.0
1978-07-08,957.0
1978-07-09,971.0
1978-07-10,979.0
1978-07-11,977.0
1978-07-12,977.0
1978-07-13,965.0
1978-07-14,957.0
1978-07-15,969.0
1978-07-16,981.0
1978-07-17,1010.0
1978-07-18,1020.0
1978-07-19,1020.0
1978-07-20,1020.0
1978-07-21,1020.0
1978-07-22,1030.0
1978-07-23,1020.0
1978-07-24,1020.0
1978-07-25,1020.0
1978-07-26,1030.0
1978-07-27,1010.0
1978-07-28,1020.0
1978-07-29,1000.0
1978-07-30,991.0
1978-07-31,1010.0
1978-08-01,1010.0
1978-08-02,1010.0
1978-08-03,988.0
1978-08-04,977.0
1978-08-05,970.0
1978-08-06,928.0
1978-08-07,892.0
1978-08-08,918.0
1978-08-09,928.0
1978-08-10,920.0
1978-08-11,923.0
1978-08-12,921.0
1978-08-13,884.0
1978-08-14,863.0
1978-08-15,839.0
1978-08-16,821.0
1978-08-17,802.0
1978-08-18,818.0
1978-08-19,816.0
1978-08-20,819.0
1978-08-21,823.0
1978-08-22,813.0
1978-08-23,784.0
1978-08-24,766.0
1978-08-25,749.0
1978-08-26,727.0
1978-08-27,722.0
1978-08-28,743.0
1978-08-29,733.0
1978-08-30,743.0
1978-08-31,738.0
1978-09-01,711.0
1978-09-02,699.0
1978-09-03,711.0
1978-09-04,718.0
1978-09-05,705.0
1978-09-06,712.0
1978-09-07,703.0
1978-09-08,665.0
1978-09-09,620.0
1978-09-10,566.0
1978-09-11,538.0
1978-09-12,532.0
1978-09-13,523.0
1978-09-14,498.0
1978-09-15,488.0
1978-09-16,487.0
1978-09-17,491.0
1978-09-18,479.0
1978-09-19,455.0
1978-09-20,447.0
1978-09-21,444.0
1978-09-22,432.0
1978-09-23,428.0
1978-09-24,452.0
1978-09-25,479.0
1978-09-26,497.0
1978-09-27,509.0
1978-09-28,504.0
1978-09-29,500.0
1978-09-30,487.0
1978-10-01,479.0
1978-10-02,463.0
1978-10-03,483.0
1978-10-04,487.0
1978-10-05,467.0
1978-10-06,456.0
1978-10-07,482.0
1978-10-08,488.0
1978-10-09,516.0
1978-10-10,531.0
1978-10-11,525.0
1978-10-12,496.0
1978-10-13,261.0
1978-10-14,0.0
1978-10-15,0.0
1978-10-16,0.0
1978-10-17,0.0
1978-10-18,0.0
1978-10-19,0.0
1978-10-20,0.0
1978-10-21,0.0
1978-10-22,0.0
1978-10-23,0.0
1978-10-24,0.0
1978-10-25,0.0
1978-10-26,0.0
1978-10-27,0.0
1978-10-28,0.0
1978-10-29,0.0
1978-10-30,0.0